Location: Newark
(41.6500°N, 71.4833°W)
Time: 18:45:53
(UTC+00:00)

deb Explorer IX - Pass Details

Date: 27 January 2020
Orbit: 549 x 1099 km, 38.8° (Epoch: 18 February)

Event Time Altitude Azimuth Distance (km) Brightness Sun altitude
Rises 23:42:07 0° 200° (SSW) 3,474 ? -20.1°
Reaches altitude 10° 23:45:21 10° 183° (S) 2,639 ? -20.7°
Maximum altitude 23:49:37 19° 141° (SE) 2,188 ? -21.5°
Enters shadow 23:49:49 19° 139° (SE) 2,194 ? -21.5°
Drops below altitude 10° 23:54:11 10° 100° (E) 2,858 - -22.3°
Sets 23:57:52 0° 84° (E) 3,870 - -23.0°
